This is the latest recevied weather packets stored in our database for station/object KD0SBN. If no packets are shown the sender has not sent any weather packets the latest 10 day(s).
| Time | Temp. | Humidity | Pressure | Rain* | Wind** | Luminosity | Snow |
|---|---|---|---|---|---|---|---|
| 1777848849 | 25.56° C | 18% | 1009.9 hPa | 0 mm | - | - | - |
| 1777848546 | 25.56° C | 18% | 1010 hPa | 0 mm | - | - | - |
| 1777848243 | 26.11° C | 18% | 1010.1 hPa | 0 mm | - | - | - |
| 1777847940 | 26.11° C | 17% | 1010.1 hPa | 0 mm | - | - | - |
| 1777847638 | 25.56° C | 18% | 1010.1 hPa | 0 mm | - | - | - |
| 1777847333 | 26.11° C | 18% | 1010.5 hPa | 0 mm | - | - | - |
| 1777847032 | 26.11° C | 18% | 1010.2 hPa | 0 mm | - | - | - |
| 1777846730 | 26.67° C | 18% | 1010.4 hPa | 0 mm | - | - | - |
| 1777846428 | 26.11° C | 17% | 1010.2 hPa | 0 mm | - | - | - |
| 1777846124 | 26.11° C | 18% | 1010.8 hPa | 0 mm | - | - | - |
| 1777845821 | 26.11° C | 17% | 1010.8 hPa | 0 mm | - | - | - |
| 1777845518 | 25.56° C | 18% | 1010.8 hPa | 0 mm | - | - | - |
| 1777845215 | 26.67° C | 17% | 1011.1 hPa | 0 mm | - | - | - |
| 1777844913 | 26.67° C | 19% | 1010.8 hPa | 0 mm | - | - | - |
| 1777844610 | 26.67° C | 16% | 1011.1 hPa | 0 mm | - | - | - |
| 1777844307 | 25.56° C | 16% | 1011.2 hPa | 0 mm | - | - | - |
| 1777844005 | 26.11° C | 17% | 1011.4 hPa | 0 mm | - | - | - |
| 1777843701 | 26.67° C | 18% | 1011.6 hPa | 0 mm | - | - | - |
| 1777843399 | 27.22° C | 18% | 1011.6 hPa | 0 mm | - | - | - |
| 1777843096 | 26.67° C | 17% | 1012 hPa | 0 mm | - | - | - |
| 1777842793 | 25.56° C | 17% | 1012.1 hPa | 0 mm | - | - | - |
| 1777842493 | 26.11° C | 17% | 1012.3 hPa | 0 mm | - | - | - |
| 1777842192 | 25.56° C | 18% | 1012.1 hPa | 0 mm | - | - | - |
| 1777841886 | 25.56° C | 20% | 1012.3 hPa | 0 mm | - | - | - |
| 1777841583 | 25° C | 18% | 1012.4 hPa | 0 mm | - | - | - |
* Rain latest hour (hover to see other rain measurements)
** Current wind speed in m/s (hover to see current wind gust speed)